Location: Unspecified
(0.0000°N, 0.0000°E)
Time: 22:54:29
(UTC+00:00)

Kosmos-1429 - Visible Passes

Search period start: 21 February 2024 00:00
Search period end: 02 March 2024 00:00
Orbit: 1466 x 1518 km, 74.0° (Epoch: 21 February)

Date Brightness Start Highest point End Pass type
(mag) Time Alt. Az. Time Alt. Az. Time Alt. Az.
21 Feb ? 18:24:45 10° N 18:33:21 51° ENE 18:41:52 10° SSE visible
21 Feb ? 20:25:00 10° WNW 20:31:09 21° WSW 20:37:19 10° SSW visible
22 Feb ? 19:32:15 10° NNW 19:40:37 45° WSW 19:48:58 10° S visible
23 Feb ? 18:41:08 10° NNW 18:50:08 89° W 18:59:03 10° SSE visible
24 Feb ? 05:19:32 10° SSE 05:25:50 22° ESE 05:32:08 10° NE visible
24 Feb ? 19:50:47 10° NW 19:57:25 23° WSW 20:04:05 10° SSW visible
25 Feb ? 18:58:22 10° NNW 19:06:53 50° WSW 19:15:24 10° S visible
26 Feb ? 05:34:30 10° S 05:42:38 43° ESE 05:50:47 10° NNE visible
26 Feb ? 20:13:35 10° W 20:14:17 10° WSW 20:14:59 10° WSW visible
27 Feb ? 04:46:20 10° SE 04:52:06 19° ESE 04:57:52 10° ENE visible
27 Feb ? 19:16:38 10° NW 19:23:41 27° WSW 19:30:46 10° SSW visible
28 Feb ? 18:24:31 10° NNW 18:33:11 56° WSW 18:41:49 10° S visible
29 Feb ? 05:00:59 10° SSE 05:08:54 38° ESE 05:16:50 10° NE visible
29 Feb ? 19:37:25 10° W 19:40:32 12° WSW 19:43:40 10° SW visible
01 Mar ? 04:13:14 10° SE 04:18:21 17° ESE 04:23:28 10° ENE visible
01 Mar ? 18:42:33 10° NW 18:49:58 30° WSW 18:57:23 10° SSW visible
